Location: Casa Rossa
(45.2389°N, 12.2056°E)
Time: 22:22:48
(UTC+00:00)

ARIANE 5 R/B - Pass Details

Date: 14 July 2020
Orbit: 749 x 794 km, 98.6° (Epoch: 14 August)

Event Time Altitude Azimuth Distance (km) Brightness Sun altitude
Rises 01:11:46 0° 24° (NNE) 3,238 7.5 -18.2°
Reaches altitude 10° 01:14:23 10° 36° (NE) 2,314 6.3 -18.0°
Maximum altitude 01:18:46 29° 95° (E) 1,404 4.1 -17.6°
Enters shadow 01:23:10 10° 155° (SSE) 2,321 4.7 -17.2°
